| time (UTC) | temp F | wind direction | speed MPH | gust MPH | rain 1hr in | rain 24hr in | rain mn in | humidity % | barometer mb |
| 20260507204030 | 63 | 9 | 10.0 | 0.0 | 0.00 | 0.00 | 0.00 | 30 | 1005.5 |
| 20260507203547 | 63 | 355 | 9.0 | 0.0 | 0.00 | 0.00 | 0.00 | 29 | 1005.6 |
| 20260507203103 | 63 | 33 | 8.0 | 0.0 | 0.00 | 0.00 | 0.00 | 29 | 1005.5 |
| 20260507202515 | 63 | 355 | 7.0 | 0.0 | 0.00 | 0.00 | 0.00 | 29 | 1005.5 |
| 20260507202031 | 62 | 355 | 8.0 | 0.0 | 0.00 | 0.00 | 0.00 | 28 | 1005.6 |
| 20260507201550 | 62 | 283 | 8.0 | 0.0 | 0.00 | 0.00 | 0.00 | 28 | 1005.6 |
| 20260507201002 | 62 | 290 | 9.0 | 0.0 | 0.00 | 0.00 | 0.00 | 29 | 1005.8 |
| 20260507200519 | 63 | 307 | 8.0 | 0.0 | 0.00 | 0.00 | 0.00 | 28 | 1005.8 |
| 20260507200037 | 63 | 306 | 6.0 | 0.0 | 0.00 | 0.00 | 0.00 | 29 | 1005.7 |
| 20260507195549 | 63 | 325 | 5.0 | 0.0 | 0.00 | 0.00 | 0.00 | 29 | 1005.8 |
| 20260507195105 | 63 | 273 | 7.0 | 0.0 | 0.00 | 0.00 | 0.00 | 28 | 1005.7 |
| 20260507194518 | 62 | 304 | 8.0 | 0.0 | 0.00 | 0.00 | 0.00 | 28 | 1005.8 |
| 20260507194031 | 62 | 313 | 8.0 | 0.0 | 0.00 | 0.00 | 0.00 | 28 | 1005.8 |
| 20260507193545 | 62 | 308 | 8.0 | 0.0 | 0.00 | 0.00 | 0.00 | 29 | 1006.1 |
| 20260507193101 | 61 | 291 | 10.0 | 0.0 | 0.00 | 0.00 | 0.00 | 31 | 1006.2 |
| 20260507192508 | 61 | 292 | 8.0 | 0.0 | 0.00 | 0.00 | 0.00 | 30 | 1006.3 |
| 20260507192030 | 61 | 294 | 8.0 | 0.0 | 0.00 | 0.00 | 0.00 | 33 | 1006.3 |
| 20260507191547 | 61 | 339 | 11.0 | 0.0 | 0.00 | 0.00 | 0.00 | 31 | 1006.3 |
| 20260507191058 | 61 | 318 | 12.0 | 0.0 | 0.00 | 0.00 | 0.00 | 30 | 1006.3 |
| 20260507190514 | 61 | 307 | 12.0 | 0.0 | 0.00 | 0.00 | 0.00 | 34 | 1006.5 |
| 20260507190027 | 61 | 328 | 12.0 | 0.0 | 0.00 | 0.00 | 0.00 | 32 | 1006.4 |
| 20260507185546 | 61 | 284 | 12.0 | 0.0 | 0.00 | 0.00 | 0.00 | 32 | 1006.5 |
| 20260507185105 | 61 | 304 | 11.0 | 0.0 | 0.00 | 0.00 | 0.00 | 33 | 1006.6 |
| 20260507184517 | 61 | 268 | 12.0 | 0.0 | 0.00 | 0.00 | 0.00 | 32 | 1006.7 |
| 20260507184028 | 61 | 264 | 12.0 | 0.0 | 0.00 | 0.00 | 0.00 | 32 | 1006.8 |
| 20260507183549 | 61 | 292 | 12.0 | 0.0 | 0.00 | 0.00 | 0.00 | 34 | 1006.7 |
| 20260507183008 | 60 | 300 | 10.0 | 0.0 | 0.00 | 0.00 | 0.00 | 35 | 1006.8 |
| 20260507182533 | 60 | 279 | 10.0 | 0.0 | 0.00 | 0.00 | 0.00 | 35 | 1006.9 |
| 20260507182053 | 60 | 338 | 10.0 | 0.0 | 0.00 | 0.00 | 0.00 | 34 | 1006.8 |
| 20260507181503 | 60 | 323 | 9.0 | 0.0 | 0.00 | 0.00 | 0.00 | 35 | 1006.8 |
| 20260507181020 | 59 | 317 | 12.0 | 0.0 | 0.00 | 0.00 | 0.00 | 34 | 1007.1 |
| 20260507180536 | 59 | 297 | 12.0 | 0.0 | 0.00 | 0.00 | 0.00 | 34 | 1007.2 |
| 20260507180054 | 59 | 292 | 9.0 | 0.0 | 0.00 | 0.00 | 0.00 | 34 | 1007.1 |
| 20260507175508 | 59 | 273 | 9.0 | 0.0 | 0.00 | 0.00 | 0.00 | 35 | 1007.2 |
| 20260507175024 | 59 | 302 | 10.0 | 0.0 | 0.00 | 0.00 | 0.00 | 34 | 1007.2 |
| 20260507174550 | 59 | 288 | 10.0 | 0.0 | 0.00 | 0.00 | 0.00 | 36 | 1007.2 |
| 20260507174102 | 59 | 273 | 10.0 | 0.0 | 0.00 | 0.00 | 0.00 | 35 | 1007.2 |
| 20260507173518 | 59 | 276 | 10.0 | 0.0 | 0.00 | 0.00 | 0.00 | 35 | 1007.2 |
| 20260507173036 | 59 | 266 | 11.0 | 0.0 | 0.00 | 0.00 | 0.00 | 35 | 1007.2 |
| 20260507172547 | 60 | 296 | 10.0 | 0.0 | 0.00 | 0.00 | 0.00 | 35 | 1007.2 |
| 20260507172104 | 60 | 360 | 12.0 | 0.0 | 0.00 | 0.00 | 0.00 | 35 | 1007.2 |
| 20260507171515 | 60 | 314 | 13.0 | 0.0 | 0.00 | 0.00 | 0.00 | 35 | 1007.3 |
| 20260507171035 | 60 | 303 | 11.0 | 0.0 | 0.00 | 0.00 | 0.00 | 34 | 1007.2 |
| 20260507170554 | 59 | 304 | 11.0 | 0.0 | 0.00 | 0.00 | 0.00 | 38 | 1007.3 |
| 20260507170002 | 59 | 292 | 11.0 | 0.0 | 0.00 | 0.00 | 0.00 | 36 | 1007.5 |
| 20260507165517 | 59 | 302 | 10.0 | 0.0 | 0.00 | 0.00 | 0.00 | 35 | 1007.5 |
| 20260507165032 | 59 | 276 | 11.0 | 0.0 | 0.00 | 0.00 | 0.00 | 37 | 1007.4 |
| 20260507164608 | 59 | 283 | 12.0 | 0.0 | 0.00 | 0.00 | 0.00 | 38 | 1007.5 |
| 20260507164011 | 58 | 295 | 12.0 | 0.0 | 0.00 | 0.00 | 0.00 | 37 | 1007.6 |
| 20260507163530 | 58 | 265 | 10.0 | 0.0 | 0.00 | 0.00 | 0.00 | 39 | 1007.5 |
| 20260507163045 | 59 | 270 | 9.0 | 0.0 | 0.00 | 0.00 | 0.00 | 40 | 1007.7 |
| 20260507162605 | 59 | 269 | 9.0 | 0.0 | 0.00 | 0.00 | 0.00 | 39 | 1007.6 |
| 20260507162018 | 59 | 272 | 9.0 | 0.0 | 0.00 | 0.00 | 0.00 | 38 | 1007.7 |
| 20260507161539 | 58 | 283 | 8.0 | 0.0 | 0.00 | 0.00 | 0.00 | 39 | 1007.8 |
| 20260507161054 | 58 | 250 | 10.0 | 0.0 | 0.00 | 0.00 | 0.00 | 37 | 1007.8 |
| 20260507160509 | 59 | 298 | 11.0 | 0.0 | 0.00 | 0.00 | 0.00 | 36 | 1007.9 |
| 20260507160025 | 59 | 314 | 7.0 | 0.0 | 0.00 | 0.00 | 0.00 | 35 | 1007.8 |
| 20260507155535 | 59 | 309 | 4.0 | 0.0 | 0.00 | 0.00 | 0.00 | 39 | 1007.7 |
| 20260507155053 | 59 | 39 | 3.0 | 0.0 | 0.00 | 0.00 | 0.00 | 48 | 1007.8 |
| 20260507154513 | 58 | 120 | 3.0 | 0.0 | 0.00 | 0.00 | 0.00 | 44 | 1007.8 |
| 20260507154026 | 58 | 123 | 4.0 | 0.0 | 0.00 | 0.00 | 0.00 | 44 | 1007.9 |
| 20260507153542 | 57 | 105 | 6.0 | 0.0 | 0.00 | 0.00 | 0.00 | 46 | 1008.0 |
| 20260507153058 | 57 | 130 | 5.0 | 0.0 | 0.00 | 0.00 | 0.00 | 48 | 1008.0 |
| 20260507152510 | 56 | 157 | 6.0 | 0.0 | 0.00 | 0.00 | 0.00 | 48 | 1008.1 |
| 20260507152028 | 56 | 202 | 6.0 | 0.0 | 0.00 | 0.00 | 0.00 | 49 | 1008.4 |
| 20260507151543 | 56 | 170 | 6.0 | 0.0 | 0.00 | 0.00 | 0.00 | 49 | 1008.4 |
| 20260507151059 | 56 | 209 | 6.0 | 0.0 | 0.00 | 0.00 | 0.00 | 49 | 1008.4 |
| 20260507150510 | 56 | 148 | 7.0 | 0.0 | 0.00 | 0.00 | 0.00 | 49 | 1008.4 |
| 20260507150031 | 56 | 189 | 7.0 | 0.0 | 0.00 | 0.00 | 0.00 | 52 | 1008.5 |
| 20260507145548 | 55 | 167 | 6.0 | 0.0 | 0.00 | 0.00 | 0.00 | 52 | 1008.6 |
| 20260507145103 | 55 | 179 | 7.0 | 0.0 | 0.00 | 0.00 | 0.00 | 54 | 1008.8 |
| 20260507144518 | 55 | 199 | 8.0 | 0.0 | 0.00 | 0.00 | 0.00 | 54 | 1008.7 |
| 20260507144041 | 55 | 184 | 8.0 | 0.0 | 0.00 | 0.00 | 0.00 | 53 | 1008.7 |
| 20260507143558 | 55 | 183 | 8.0 | 0.0 | 0.00 | 0.00 | 0.00 | 55 | 1008.7 |
| 20260507143022 | 54 | 178 | 7.0 | 0.0 | 0.00 | 0.00 | 0.00 | 54 | 1008.7 |
| 20260507142537 | 53 | 174 | 6.0 | 0.0 | 0.00 | 0.00 | 0.00 | 57 | 1008.8 |
| 20260507142053 | 53 | 188 | 6.0 | 0.0 | 0.00 | 0.00 | 0.00 | 59 | 1008.8 |
| 20260507141503 | 52 | 177 | 6.0 | 0.0 | 0.00 | 0.00 | 0.00 | 60 | 1008.9 |
| 20260507141027 | 52 | 182 | 6.0 | 0.0 | 0.00 | 0.00 | 0.00 | 60 | 1008.9 |
| 20260507140542 | 51 | 180 | 6.0 | 0.0 | 0.00 | 0.00 | 0.00 | 61 | 1008.9 |
| 20260507135519 | 51 | 187 | 6.0 | 0.0 | 0.00 | 0.00 | 0.00 | 62 | 1008.8 |
| 20260507135038 | 50 | 179 | 6.0 | 0.0 | 0.00 | 0.00 | 0.00 | 64 | 1008.9 |
| 20260507134558 | 49 | 189 | 7.0 | 0.0 | 0.00 | 0.00 | 0.00 | 66 | 1009.0 |
| 20260507134004 | 48 | 190 | 8.0 | 0.0 | 0.00 | 0.00 | 0.00 | 66 | 1009.0 |
| 20260507133521 | 48 | 199 | 8.0 | 0.0 | 0.00 | 0.00 | 0.00 | 66 | 1008.9 |
| 20260507133039 | 48 | 211 | 7.0 | 0.0 | 0.00 | 0.00 | 0.00 | 66 | 1009.0 |
| 20260507132555 | 48 | 199 | 7.0 | 0.0 | 0.00 | 0.00 | 0.00 | 67 | 1009.0 |
| 20260507132010 | 48 | 212 | 6.0 | 0.0 | 0.00 | 0.00 | 0.00 | 66 | 1009.2 |
| 20260507131527 | 48 | 213 | 5.0 | 0.0 | 0.00 | 0.00 | 0.00 | 66 | 1009.1 |
| 20260507131043 | 47 | 208 | 5.0 | 0.0 | 0.00 | 0.00 | 0.00 | 67 | 1009.3 |
| 20260507130558 | 47 | 191 | 5.0 | 0.0 | 0.00 | 0.00 | 0.00 | 68 | 1009.3 |
| 20260507130024 | 46 | 202 | 5.0 | 0.0 | 0.00 | 0.00 | 0.00 | 69 | 1009.4 |
| 20260507125530 | 45 | 186 | 5.0 | 0.0 | 0.00 | 0.00 | 0.00 | 70 | 1009.4 |
| 20260507125044 | 45 | 180 | 4.0 | 0.0 | 0.00 | 0.00 | 0.00 | 71 | 1009.6 |
| 20260507124606 | 44 | 179 | 5.0 | 0.0 | 0.00 | 0.00 | 0.00 | 71 | 1009.4 |
| 20260507124010 | 44 | 179 | 5.0 | 0.0 | 0.00 | 0.00 | 0.00 | 71 | 1009.6 |
| 20260507123528 | 43 | 179 | 5.0 | 0.0 | 0.00 | 0.00 | 0.00 | 71 | 1009.7 |
| 20260507123048 | 43 | 179 | 5.0 | 0.0 | 0.00 | 0.00 | 0.00 | 72 | 1009.7 |
| 20260507122504 | 43 | 179 | 5.0 | 0.0 | 0.00 | 0.00 | 0.00 | 71 | 1009.8 |
| 20260507122023 | 43 | 179 | 5.0 | 0.0 | 0.00 | 0.00 | 0.00 | 71 | 1009.7 |
| 20260507121537 | 43 | 179 | 5.0 | 0.0 | 0.00 | 0.00 | 0.00 | 69 | 1009.7 |
| 20260507121054 | 44 | 179 | 5.0 | 0.0 | 0.00 | 0.00 | 0.00 | 67 | 1009.8 |
| 20260507120511 | 46 | 182 | 4.0 | 0.0 | 0.00 | 0.00 | 0.00 | 63 | 1009.7 |
| 20260507120022 | 47 | 209 | 4.0 | 0.0 | 0.00 | 0.00 | 0.00 | 59 | 1009.9 |
| 20260507115534 | 49 | 209 | 2.0 | 0.0 | 0.00 | 0.00 | 0.00 | 56 | 1009.9 |
| 20260507115049 | 50 | 209 | 2.0 | 0.0 | 0.00 | 0.00 | 0.00 | 53 | 1010.0 |
| 20260507114506 | 51 | 209 | 3.0 | 0.0 | 0.00 | 0.00 | 0.00 | 53 | 1010.0 |
| 20260507114026 | 52 | 209 | 2.0 | 0.0 | 0.00 | 0.00 | 0.00 | 52 | 1009.9 |
| 20260507113540 | 52 | 192 | 2.0 | 0.0 | 0.00 | 0.00 | 0.00 | 51 | 1009.7 |
| 20260507113101 | 53 | 192 | 2.0 | 0.0 | 0.00 | 0.00 | 0.00 | 51 | 1009.9 |
| 20260507112517 | 52 | 192 | 2.0 | 0.0 | 0.00 | 0.00 | 0.00 | 51 | 1010.0 |
| 20260507112033 | 52 | 63 | 2.0 | 0.0 | 0.00 | 0.00 | 0.00 | 52 | 1009.9 |
| 20260507111554 | 52 | 63 | 2.0 | 0.0 | 0.00 | 0.00 | 0.00 | 52 | 1010.0 |
| 20260507111007 | 52 | 63 | 3.0 | 0.0 | 0.00 | 0.00 | 0.00 | 52 | 1010.1 |
| 20260507110524 | 52 | 63 | 4.0 | 0.0 | 0.00 | 0.00 | 0.00 | 52 | 1010.0 |
| 20260507110045 | 52 | 355 | 3.0 | 0.0 | 0.00 | 0.00 | 0.00 | 52 | 1010.2 |
| 20260507105601 | 52 | 340 | 3.0 | 0.0 | 0.00 | 0.00 | 0.00 | 52 | 1010.2 |
| 20260507105013 | 51 | 300 | 3.0 | 0.0 | 0.00 | 0.00 | 0.00 | 53 | 1010.1 |
| 20260507104537 | 51 | 300 | 3.0 | 0.0 | 0.00 | 0.00 | 0.00 | 53 | 1010.2 |
| 20260507104053 | 52 | 300 | 3.0 | 0.0 | 0.00 | 0.00 | 0.00 | 52 | 1010.2 |
| 20260507103506 | 52 | 300 | 4.0 | 0.0 | 0.00 | 0.00 | 0.00 | 51 | 1010.0 |
| 20260507103030 | 53 | 288 | 6.0 | 0.0 | 0.00 | 0.00 | 0.00 | 51 | 1010.0 |
| 20260507102544 | 53 | 282 | 6.0 | 0.0 | 0.00 | 0.00 | 0.00 | 51 | 1010.0 |
| 20260507102104 | 53 | 309 | 6.0 | 0.0 | 0.00 | 0.00 | 0.00 | 51 | 1010.1 |
| 20260507101513 | 53 | 297 | 5.0 | 0.0 | 0.00 | 0.00 | 0.00 | 51 | 1010.1 |
| 20260507101029 | 53 | 306 | 4.0 | 0.0 | 0.00 | 0.00 | 0.00 | 51 | 1010.2 |
| 20260507100547 | 53 | 305 | 3.0 | 0.0 | 0.00 | 0.00 | 0.00 | 51 | 1010.1 |
| 20260507095512 | 53 | 314 | 1.0 | 0.0 | 0.00 | 0.00 | 0.00 | 51 | 1010.3 |
| 20260507095027 | 53 | 314 | 1.0 | 0.0 | 0.00 | 0.00 | 0.00 | 51 | 1010.3 |
| 20260507094546 | 52 | 355 | 1.0 | 0.0 | 0.00 | 0.00 | 0.00 | 51 | 1010.4 |
| 20260507094003 | 53 | 355 | 3.0 | 0.0 | 0.00 | 0.00 | 0.00 | 51 | 1010.6 |
| 20260507093522 | 52 | 355 | 3.0 | 0.0 | 0.00 | 0.00 | 0.00 | 51 | 1010.6 |
| 20260507093046 | 53 | 44 | 3.0 | 0.0 | 0.00 | 0.00 | 0.00 | 51 | 1010.6 |
| 20260507092554 | 53 | 44 | 3.0 | 0.0 | 0.00 | 0.00 | 0.00 | 51 | 1010.5 |
| 20260507092010 | 52 | 317 | 2.0 | 0.0 | 0.00 | 0.00 | 0.00 | 52 | 1010.6 |
| 20260507091529 | 51 | 82 | 2.0 | 0.0 | 0.00 | 0.00 | 0.00 | 53 | 1010.5 |
| 20260507091050 | 51 | 232 | 1.0 | 0.0 | 0.00 | 0.00 | 0.00 | 53 | 1010.5 |
| 20260507090604 | 52 | 233 | 2.0 | 0.0 | 0.00 | 0.00 | 0.00 | 52 | 1010.5 |
| 20260507090013 | 53 | 233 | 2.0 | 0.0 | 0.00 | 0.00 | 0.00 | 50 | 1010.3 |
| 20260507085530 | 53 | 231 | 2.0 | 0.0 | 0.00 | 0.00 | 0.00 | 49 | 1010.4 |
| 20260507085050 | 53 | 231 | 2.0 | 0.0 | 0.00 | 0.00 | 0.00 | 50 | 1010.3 |
| 20260507084502 | 53 | 233 | 1.0 | 0.0 | 0.00 | 0.00 | 0.00 | 49 | 1010.3 |
| 20260507084018 | 53 | 233 | 1.0 | 0.0 | 0.00 | 0.00 | 0.00 | 49 | 1010.4 |
| 20260507083538 | 53 | 233 | 1.0 | 0.0 | 0.00 | 0.00 | 0.00 | 49 | 1010.5 |
| 20260507083054 | 53 | 233 | 2.0 | 0.0 | 0.00 | 0.00 | 0.00 | 50 | 1010.5 |
| 20260507082505 | 52 | 185 | 2.0 | 0.0 | 0.00 | 0.00 | 0.00 | 50 | 1010.5 |
| 20260507082023 | 52 | 198 | 2.0 | 0.0 | 0.00 | 0.00 | 0.00 | 50 | 1010.6 |
| 20260507081535 | 52 | 225 | 3.0 | 0.0 | 0.00 | 0.00 | 0.00 | 50 | 1010.6 |
| 20260507081048 | 52 | 273 | 3.0 | 0.0 | 0.00 | 0.00 | 0.00 | 50 | 1010.7 |
| 20260507080608 | 52 | 360 | 3.0 | 0.0 | 0.00 | 0.00 | 0.00 | 50 | 1010.7 |
| 20260507080020 | 52 | 248 | 4.0 | 0.0 | 0.00 | 0.00 | 0.00 | 50 | 1010.8 |
| 20260507075536 | 52 | 244 | 4.0 | 0.0 | 0.00 | 0.00 | 0.00 | 49 | 1010.8 |
| 20260507075059 | 52 | 207 | 4.0 | 0.0 | 0.00 | 0.00 | 0.00 | 49 | 1010.8 |
| 20260507074507 | 53 | 212 | 3.0 | 0.0 | 0.00 | 0.00 | 0.00 | 49 | 1010.9 |
| 20260507074026 | 53 | 221 | 3.0 | 0.0 | 0.00 | 0.00 | 0.00 | 50 | 1010.9 |
| 20260507073539 | 53 | 221 | 4.0 | 0.0 | 0.00 | 0.00 | 0.00 | 50 | 1010.9 |
| 20260507073056 | 53 | 221 | 4.0 | 0.0 | 0.00 | 0.00 | 0.00 | 51 | 1010.9 |
| 20260507072513 | 52 | 221 | 4.0 | 0.0 | 0.00 | 0.00 | 0.00 | 52 | 1011.0 |
| 20260507072028 | 51 | 130 | 4.0 | 0.0 | 0.00 | 0.00 | 0.00 | 52 | 1011.0 |
| 20260507071601 | 50 | 150 | 5.0 | 0.0 | 0.00 | 0.00 | 0.00 | 52 | 1011.2 |
| 20260507071102 | 50 | 148 | 5.0 | 0.0 | 0.00 | 0.00 | 0.00 | 52 | 1011.2 |
| 20260507070514 | 51 | 127 | 6.0 | 0.0 | 0.00 | 0.00 | 0.00 | 51 | 1011.2 |
| 20260507070026 | 51 | 170 | 5.0 | 0.0 | 0.00 | 0.00 | 0.00 | 51 | 1011.4 |
| 20260507065548 | 51 | 157 | 5.0 | 0.0 | 0.00 | 0.00 | 0.00 | 51 | 1011.4 |
| 20260507065002 | 50 | 165 | 3.0 | 0.0 | 0.00 | 0.00 | 0.00 | 53 | 1011.4 |
| 20260507064519 | 51 | 194 | 2.0 | 0.0 | 0.00 | 0.00 | 0.00 | 52 | 1011.6 |
| 20260507064037 | 51 | 194 | 2.0 | 0.0 | 0.00 | 0.00 | 0.00 | 52 | 1011.5 |
| 20260507063556 | 50 | 138 | 2.0 | 0.0 | 0.00 | 0.00 | 0.00 | 52 | 1011.4 |
| 20260507063006 | 50 | 183 | 4.0 | 0.0 | 0.00 | 0.00 | 0.00 | 52 | 1011.6 |
| 20260507062528 | 49 | 182 | 5.0 | 0.0 | 0.00 | 0.00 | 0.00 | 54 | 1011.6 |
| 20260507062044 | 49 | 188 | 6.0 | 0.0 | 0.00 | 0.00 | 0.00 | 54 | 1011.7 |
| 20260507061505 | 49 | 140 | 6.0 | 0.0 | 0.00 | 0.00 | 0.00 | 54 | 1011.5 |
| 20260507061019 | 50 | 140 | 5.0 | 0.0 | 0.00 | 0.00 | 0.00 | 54 | 1011.5 |
| 20260507060532 | 50 | 134 | 3.0 | 0.0 | 0.00 | 0.00 | 0.00 | 51 | 1011.5 |
| 20260507060047 | 51 | 188 | 2.0 | 0.0 | 0.00 | 0.00 | 0.00 | 50 | 1011.5 |
| 20260507055603 | 51 | 218 | 3.0 | 0.0 | 0.00 | 0.00 | 0.00 | 50 | 1011.6 |
| 20260507055015 | 51 | 218 | 4.0 | 0.0 | 0.00 | 0.00 | 0.00 | 50 | 1011.7 |
| 20260507054531 | 52 | 227 | 4.0 | 0.0 | 0.00 | 0.00 | 0.00 | 49 | 1011.8 |
| 20260507054046 | 52 | 247 | 4.0 | 0.0 | 0.00 | 0.00 | 0.00 | 47 | 1011.8 |
| 20260507053501 | 52 | 229 | 5.0 | 0.0 | 0.00 | 0.00 | 0.00 | 47 | 1011.9 |
| 20260507053021 | 51 | 229 | 4.0 | 0.0 | 0.00 | 0.00 | 0.00 | 48 | 1011.8 |
| 20260507052538 | 51 | 97 | 3.0 | 0.0 | 0.00 | 0.00 | 0.00 | 48 | 1011.8 |
| 20260507052057 | 52 | 50 | 2.0 | 0.0 | 0.00 | 0.00 | 0.00 | 48 | 1011.8 |
| 20260507051519 | 51 | 50 | 1.0 | 0.0 | 0.00 | 0.00 | 0.00 | 48 | 1011.8 |
| 20260507051025 | 51 | 50 | 2.0 | 0.0 | 0.00 | 0.00 | 0.00 | 49 | 1011.8 |
| 20260507050543 | 51 | 50 | 2.0 | 0.0 | 0.00 | 0.00 | 0.00 | 49 | 1011.9 |
| 20260507050104 | 51 | 50 | 2.0 | 0.0 | 0.00 | 0.00 | 0.00 | 49 | 1011.9 |
| 20260507045511 | 51 | 50 | 4.0 | 0.0 | 0.00 | 0.00 | 0.00 | 49 | 1011.9 |
| 20260507045028 | 52 | 178 | 5.0 | 0.0 | 0.00 | 0.00 | 0.00 | 49 | 1012.2 |
| 20260507044549 | 52 | 195 | 6.0 | 0.0 | 0.00 | 0.00 | 0.00 | 48 | 1011.9 |
| 20260507044104 | 52 | 205 | 5.0 | 0.0 | 0.00 | 0.00 | 0.00 | 48 | 1012.0 |
| 20260507043513 | 52 | 204 | 4.0 | 0.0 | 0.00 | 0.00 | 0.00 | 48 | 1012.1 |
| 20260507043030 | 51 | 211 | 4.0 | 0.0 | 0.00 | 0.00 | 0.00 | 50 | 1012.1 |
| 20260507042545 | 51 | 211 | 4.0 | 0.0 | 0.00 | 0.00 | 0.00 | 51 | 1012.1 |
| 20260507042103 | 51 | 211 | 3.0 | 0.0 | 0.00 | 0.00 | 0.00 | 51 | 1012.1 |
| 20260507041510 | 52 | 215 | 3.0 | 0.0 | 0.00 | 0.00 | 0.00 | 51 | 1012.1 |
| 20260507041026 | 53 | 215 | 4.0 | 0.0 | 0.00 | 0.00 | 0.00 | 49 | 1012.2 |
| 20260507040544 | 53 | 215 | 5.0 | 0.0 | 0.00 | 0.00 | 0.00 | 49 | 1012.2 |
| 20260507040118 | 53 | 215 | 6.0 | 0.0 | 0.00 | 0.00 | 0.00 | 49 | 1012.2 |
| 20260507035512 | 54 | 215 | 6.0 | 0.0 | 0.00 | 0.00 | 0.00 | 47 | 1012.1 |
| 20260507035029 | 54 | 219 | 5.0 | 0.0 | 0.00 | 0.00 | 0.00 | 46 | 1012.1 |
| 20260507034547 | 53 | 315 | 4.0 | 0.0 | 0.00 | 0.00 | 0.00 | 46 | 1012.1 |
| 20260507034102 | 52 | 315 | 3.0 | 0.0 | 0.00 | 0.00 | 0.00 | 48 | 1012.1 |
| 20260507033513 | 52 | 315 | 3.0 | 0.0 | 0.00 | 0.00 | 0.00 | 52 | 1012.1 |
| 20260507033039 | 52 | 315 | 3.0 | 0.0 | 0.00 | 0.00 | 0.00 | 52 | 1012.1 |
| 20260507032547 | 53 | 315 | 3.0 | 0.0 | 0.00 | 0.00 | 0.00 | 51 | 1012.1 |
| 20260507032001 | 54 | 315 | 2.0 | 0.0 | 0.00 | 0.00 | 0.00 | 48 | 1012.0 |
| 20260507031521 | 54 | 315 | 3.0 | 0.0 | 0.00 | 0.00 | 0.00 | 46 | 1012.0 |
| 20260507031040 | 54 | 315 | 4.0 | 0.0 | 0.00 | 0.00 | 0.00 | 44 | 1012.0 |
| 20260507030552 | 54 | 315 | 4.0 | 0.0 | 0.00 | 0.00 | 0.00 | 45 | 1012.1 |
| 20260507030010 | 54 | 315 | 3.0 | 0.0 | 0.00 | 0.00 | 0.00 | 45 | 1012.1 |
| 20260507025529 | 54 | 315 | 3.0 | 0.0 | 0.00 | 0.00 | 0.00 | 46 | 1012.2 |
| 20260507025047 | 55 | 315 | 3.0 | 0.0 | 0.00 | 0.00 | 0.00 | 46 | 1012.1 |
| 20260507024606 | 55 | 320 | 3.0 | 0.0 | 0.00 | 0.00 | 0.00 | 44 | 1012.2 |
| 20260507024015 | 55 | 320 | 3.0 | 0.0 | 0.00 | 0.00 | 0.00 | 42 | 1012.5 |
| 20260507023531 | 56 | 320 | 2.0 | 0.0 | 0.00 | 0.00 | 0.00 | 42 | 1012.5 |
| 20260507023050 | 57 | 320 | 2.0 | 0.0 | 0.00 | 0.00 | 0.00 | 41 | 1012.4 |
| 20260507022604 | 58 | 320 | 2.0 | 0.0 | 0.00 | 0.00 | 0.00 | 39 | 1012.3 |
| 20260507022013 | 58 | 320 | 1.0 | 0.0 | 0.00 | 0.00 | 0.00 | 36 | 1012.4 |
| 20260507021527 | 58 | 320 | 1.0 | 0.0 | 0.00 | 0.00 | 0.00 | 35 | 1012.5 |
| 20260507021041 | 59 | 320 | 1.0 | 0.0 | 0.00 | 0.00 | 0.00 | 35 | 1012.5 |
| 20260507020604 | 59 | 320 | 2.0 | 0.0 | 0.00 | 0.00 | 0.00 | 34 | 1012.6 |
| 20260507020008 | 59 | 320 | 2.0 | 0.0 | 0.00 | 0.00 | 0.00 | 34 | 1012.6 |
| 20260507015524 | 59 | 320 | 2.0 | 0.0 | 0.00 | 0.00 | 0.00 | 34 | 1012.6 |
| 20260507015042 | 60 | 320 | 1.0 | 0.0 | 0.00 | 0.00 | 0.00 | 34 | 1012.6 |
| 20260507014605 | 60 | 320 | 1.0 | 0.0 | 0.00 | 0.00 | 0.00 | 33 | 1012.7 |
| 20260507014011 | 60 | 320 | 3.0 | 0.0 | 0.00 | 0.00 | 0.00 | 33 | 1012.6 |
| 20260507013522 | 60 | 320 | 4.0 | 0.0 | 0.00 | 0.00 | 0.00 | 33 | 1012.7 |
| 20260507013039 | 60 | 320 | 5.0 | 0.0 | 0.00 | 0.00 | 0.00 | 32 | 1012.7 |
| 20260507012552 | 61 | 320 | 6.0 | 0.0 | 0.00 | 0.00 | 0.00 | 31 | 1012.8 |
| 20260507012004 | 61 | 323 | 8.0 | 0.0 | 0.00 | 0.00 | 0.00 | 30 | 1012.8 |
| 20260507011517 | 62 | 321 | 9.0 | 0.0 | 0.00 | 0.00 | 0.00 | 29 | 1012.9 |
| 20260507011032 | 63 | 316 | 10.0 | 0.0 | 0.00 | 0.00 | 0.00 | 28 | 1012.9 |
| 20260507010551 | 63 | 302 | 12.0 | 0.0 | 0.00 | 0.00 | 0.00 | 28 | 1012.9 |
| 20260507010003 | 63 | 301 | 12.0 | 0.0 | 0.00 | 0.00 | 0.00 | 28 | 1013.1 |
| 20260507005516 | 63 | 331 | 10.0 | 0.0 | 0.00 | 0.00 | 0.00 | 28 | 1013.1 |
| 20260507005033 | 63 | 304 | 9.0 | 0.0 | 0.00 | 0.00 | 0.00 | 28 | 1013.0 |
| 20260507004559 | 62 | 322 | 8.0 | 0.0 | 0.00 | 0.00 | 0.00 | 29 | 1013.2 |
| 20260507004103 | 62 | 299 | 8.0 | 0.0 | 0.00 | 0.00 | 0.00 | 28 | 1013.2 |
| 20260507003512 | 62 | 319 | 7.0 | 0.0 | 0.00 | 0.00 | 0.00 | 28 | 1013.2 |
| 20260507003030 | 63 | 313 | 7.0 | 0.0 | 0.00 | 0.00 | 0.00 | 29 | 1013.3 |
| 20260507002550 | 63 | 328 | 7.0 | 0.0 | 0.00 | 0.00 | 0.00 | 28 | 1013.3 |
| 20260507002006 | 63 | 303 | 4.0 | 0.0 | 0.00 | 0.00 | 0.00 | 29 | 1013.2 |
| 20260507001519 | 62 | 11 | 3.0 | 0.0 | 0.00 | 0.00 | 0.00 | 28 | 1013.3 |
| 20260507001033 | 62 | 11 | 4.0 | 0.0 | 0.00 | 0.00 | 0.00 | 28 | 1013.3 |
| 20260507000548 | 62 | 342 | 6.0 | 0.0 | 0.00 | 0.00 | 0.00 | 28 | 1013.4 |
| 20260507000104 | 63 | 342 | 9.0 | 0.0 | 0.00 | 0.00 | 0.00 | 29 | 1013.4 |
| 20260506235511 | 64 | 313 | 10.0 | 0.0 | 0.00 | 0.00 | 0.00 | 28 | 1013.3 |
| 20260506235022 | 63 | 360 | 8.0 | 0.0 | 0.00 | 0.00 | 0.00 | 28 | 1013.3 |
| 20260506234538 | 63 | 278 | 8.0 | 0.0 | 0.00 | 0.00 | 0.00 | 28 | 1013.4 |
| 20260506234051 | 63 | 277 | 6.0 | 0.0 | 0.00 | 0.00 | 0.00 | 28 | 1013.6 |
| 20260506233506 | 63 | 355 | 6.0 | 0.0 | 0.00 | 0.00 | 0.00 | 28 | 1013.8 |
| 20260506233019 | 63 | 290 | 8.0 | 0.0 | 0.00 | 0.00 | 0.00 | 29 | 1013.9 |
| 20260506232531 | 62 | 267 | 10.0 | 0.0 | 0.00 | 0.00 | 0.00 | 28 | 1013.9 |
| 20260506232044 | 62 | 269 | 9.0 | 0.0 | 0.00 | 0.00 | 0.00 | 29 | 1014.1 |
| 20260506231602 | 61 | 295 | 7.0 | 0.0 | 0.00 | 0.00 | 0.00 | 29 | 1014.1 |
| 20260506231008 | 61 | 263 | 6.0 | 0.0 | 0.00 | 0.00 | 0.00 | 31 | 1014.3 |
| 20260506230517 | 61 | 355 | 7.0 | 0.0 | 0.00 | 0.00 | 0.00 | 31 | 1014.3 |
| 20260506230037 | 60 | 12 | 8.0 | 0.0 | 0.00 | 0.00 | 0.00 | 31 | 1014.3 |
| 20260506225551 | 60 | 319 | 8.0 | 0.0 | 0.00 | 0.00 | 0.00 | 31 | 1014.3 |
| 20260506225003 | 60 | 331 | 8.0 | 0.0 | 0.00 | 0.00 | 0.00 | 31 | 1014.4 |
| 20260506224520 | 60 | 290 | 6.0 | 0.0 | 0.00 | 0.00 | 0.00 | 30 | 1014.5 |
| 20260506224039 | 60 | 290 | 6.0 | 0.0 | 0.00 | 0.00 | 0.00 | 30 | 1014.5 |
| 20260506223555 | 60 | 292 | 7.0 | 0.0 | 0.00 | 0.00 | 0.00 | 31 | 1014.5 |
| 20260506223110 | 60 | 296 | 9.0 | 0.0 | 0.00 | 0.00 | 0.00 | 30 | 1014.7 |
| 20260506222515 | 60 | 255 | 10.0 | 0.0 | 0.00 | 0.00 | 0.00 | 29 | 1014.7 |
| 20260506222034 | 61 | 288 | 10.0 | 0.0 | 0.00 | 0.00 | 0.00 | 29 | 1014.7 |
| 20260506221546 | 60 | 279 | 10.0 | 0.0 | 0.00 | 0.00 | 0.00 | 30 | 1014.9 |
| 20260506221101 | 60 | 315 | 12.0 | 0.0 | 0.00 | 0.00 | 0.00 | 30 | 1015.1 |
| 20260506220516 | 60 | 284 | 14.0 | 0.0 | 0.00 | 0.00 | 0.00 | 29 | 1015.2 |
| 20260506220038 | 60 | 360 | 10.0 | 0.0 | 0.00 | 0.00 | 0.00 | 30 | 1015.3 |
| 20260506215548 | 60 | 324 | 8.0 | 0.0 | 0.00 | 0.00 | 0.00 | 30 | 1015.3 |
| 20260506215058 | 60 | 311 | 9.0 | 0.0 | 0.00 | 0.00 | 0.00 | 30 | 1015.4 |
| 20260506214510 | 60 | 325 | 11.0 | 0.0 | 0.00 | 0.00 | 0.00 | 29 | 1015.5 |
| 20260506214025 | 60 | 286 | 12.0 | 0.0 | 0.00 | 0.00 | 0.00 | 29 | 1015.6 |
| 20260506213543 | 60 | 277 | 13.0 | 0.0 | 0.00 | 0.00 | 0.00 | 30 | 1015.7 |
| 20260506213056 | 60 | 281 | 13.0 | 0.0 | 0.00 | 0.00 | 0.00 | 30 | 1015.6 |
| 20260506212507 | 59 | 340 | 13.0 | 0.0 | 0.00 | 0.00 | 0.00 | 31 | 1015.6 |
| 20260506212026 | 59 | 314 | 14.0 | 0.0 | 0.00 | 0.00 | 0.00 | 30 | 1015.6 |
| 20260506211541 | 59 | 314 | 13.0 | 0.0 | 0.00 | 0.00 | 0.00 | 29 | 1015.7 |
| 20260506211059 | 59 | 336 | 14.0 | 0.0 | 0.00 | 0.00 | 0.00 | 30 | 1015.8 |
| 20260506210513 | 60 | 281 | 15.0 | 0.0 | 0.00 | 0.00 | 0.00 | 30 | 1016.0 |
| 20260506210027 | 60 | 327 | 14.0 | 0.0 | 0.00 | 0.00 | 0.00 | 30 | 1016.1 |
| 20260506205542 | 59 | 334 | 14.0 | 0.0 | 0.00 | 0.00 | 0.00 | 30 | 1016.2 |
| 20260506205101 | 58 | 327 | 12.0 | 0.0 | 0.00 | 0.00 | 0.00 | 30 | 1016.2 |
| 20260506204516 | 58 | 331 | 8.0 | 0.0 | 0.00 | 0.00 | 0.00 | 32 | 1016.2 |